Location: Melbourne
(37.8170°S, 144.9670°E)
Time: 07:05:22
(UTC+10:00)

CZ-3 R/B - Visible Passes

Search period start: 24 April 2014 00:00
Search period end: 04 May 2014 00:00
Orbit: 208 x 15352 km, 28.5° (Epoch: 22 April)

Date Brightness Start Highest point End Pass type
(mag) Time Alt. Az. Time Alt. Az. Time Alt. Az.
24 Apr 5.5 00:41:12 31° ENE 00:41:12 31° ENE 01:11:22 10° ENE visible
24 Apr 5.5 05:20:37 19° WNW 05:50:01 37° NNW 07:55:16 10° NNE visible
24 Apr 5.8 23:58:07 20° ENE 23:58:07 20° ENE 00:10:17 10° ENE visible
25 Apr 5.3 04:37:28 29° WNW 04:56:28 41° NNW 07:01:28 10° NNE visible
26 Apr 5.1 03:53:56 39° NW 04:03:51 44° NNW 06:02:54 10° NNE visible
27 Apr 5.1 03:10:02 47° NNW 03:12:20 47° NNW 04:58:57 10° NE visible
28 Apr 5.1 02:25:46 48° N 02:25:46 48° N 03:49:45 10° NE visible
29 Apr 5.3 01:41:08 41° NNE 01:41:08 41° NNE 02:38:01 10° NE visible
29 Apr 5.9 06:26:02 10° WNW 07:05:25 23° NW 08:47:01 10° N visible
30 Apr 5.6 00:56:07 31° NE 00:56:07 31° NE 01:28:33 10° ENE visible
30 Apr 5.7 05:35:04 12° WNW 06:08:10 28° NNW 07:59:05 10° N visible
01 May 5.9 00:10:44 20° ENE 00:10:44 20° ENE 00:24:09 10° ENE visible
01 May 5.5 04:49:37 22° WNW 05:11:19 32° NNW 07:04:20 10° NNE visible
02 May 5.4 04:03:47 31° NW 04:15:24 36° NNW 06:03:47 10° NNE visible
03 May 5.3 03:17:35 38° NNW 03:20:43 39° NNW 04:57:35 10° NNE visible
